TimeCST,TemperatureF,Dew PointF,Humidity,Sea Level PressureIn,VisibilityMPH,Wind Direction,Wind SpeedMPH,Gust SpeedMPH,PrecipitationIn,Events,Conditions,WindDirDegrees,DateUTC
12:15 AM,17.4,5.7,60,30.28,10.0,North,24.2,28.8,N/A,,Clear,350,2012-02-11 06:15:00
12:35 AM,17.1,5.2,60,30.29,10.0,North,23.0,29.9,N/A,,Clear,350,2012-02-11 06:35:00
12:55 AM,16.7,5.0,60,30.29,10.0,North,23.0,28.8,N/A,,Clear,350,2012-02-11 06:55:00
1:15 AM,16.5,5.2,61,30.30,10.0,North,23.0,29.9,N/A,,Clear,350,2012-02-11 07:15:00
1:35 AM,16.3,5.7,63,30.30,10.0,NNW,20.7,25.3,N/A,,Clear,340,2012-02-11 07:35:00
1:55 AM,16.3,5.9,64,30.30,10.0,NNW,19.6,26.5,N/A,,Clear,340,2012-02-11 07:55:00
2:15 AM,16.3,6.4,65,30.31,10.0,NNW,16.1,24.2,N/A,,Clear,330,2012-02-11 08:15:00
2:35 AM,15.8,6.1,66,30.31,10.0,NNW,19.6,-,N/A,,Clear,330,2012-02-11 08:35:00
2:55 AM,15.8,5.7,64,30.31,10.0,NNW,17.3,21.9,N/A,,Clear,330,2012-02-11 08:55:00
3:15 AM,15.6,5.4,64,30.32,10.0,NNW,17.3,23.0,N/A,,Clear,330,2012-02-11 09:15:00
3:35 AM,15.6,5.0,63,30.32,10.0,NNW,17.3,23.0,N/A,,Clear,330,2012-02-11 09:35:00
3:55 AM,15.4,4.6,62,30.33,10.0,NNW,16.1,-,N/A,,Clear,330,2012-02-11 09:55:00
4:15 AM,15.4,4.6,62,30.34,10.0,NNW,13.8,19.6,N/A,,Clear,330,2012-02-11 10:15:00
4:35 AM,14.9,4.8,64,30.35,10.0,NNW,17.3,-,N/A,,Clear,330,2012-02-11 10:35:00
4:55 AM,14.9,4.8,64,30.35,10.0,NW,17.3,23.0,N/A,,Clear,320,2012-02-11 10:55:00
5:15 AM,14.0,5.0,67,30.36,10.0,NW,16.1,-,N/A,,Clear,320,2012-02-11 11:15:00
5:35 AM,14.7,4.1,63,30.36,10.0,NW,17.3,-,N/A,,Clear,320,2012-02-11 11:35:00
5:55 AM,14.5,3.6,62,30.38,10.0,NW,19.6,-,N/A,,Clear,320,2012-02-11 11:55:00
6:15 AM,14.4,3.2,61,30.38,10.0,NW,16.1,-,N/A,,Clear,320,2012-02-11 12:15:00
6:35 AM,14.0,2.7,61,30.39,10.0,NW,16.1,-,N/A,,Clear,320,2012-02-11 12:35:00
6:55 AM,14.0,2.3,60,30.40,10.0,NW,18.4,23.0,N/A,,Clear,320,2012-02-11 12:55:00
7:15 AM,14.2,2.3,59,30.40,10.0,NW,15.0,-,N/A,,Clear,320,2012-02-11 13:15:00
7:35 AM,14.7,2.5,58,30.41,10.0,NW,17.3,-,N/A,,Clear,320,2012-02-11 13:35:00
7:55 AM,15.4,2.3,56,30.42,10.0,NW,19.6,25.3,N/A,,Clear,320,2012-02-11 13:55:00
8:15 AM,16.3,2.7,55,30.43,10.0,NW,23.0,26.5,N/A,,Clear,320,2012-02-11 14:15:00
8:35 AM,16.7,2.1,53,30.43,10.0,NNW,19.6,-,N/A,,Clear,330,2012-02-11 14:35:00
8:55 AM,17.4,2.7,52,30.43,10.0,NNW,20.7,-,N/A,,Clear,330,2012-02-11 14:55:00
9:15 AM,18.3,3.7,53,30.43,10.0,NW,19.6,23.0,N/A,,Clear,320,2012-02-11 15:15:00
9:35 AM,19.0,3.9,52,30.44,10.0,NNW,17.3,-,N/A,,Clear,330,2012-02-11 15:35:00
9:55 AM,19.4,4.3,52,30.43,10.0,NW,20.7,-,N/A,,Clear,320,2012-02-11 15:55:00
10:15 AM,19.8,3.9,50,30.44,10.0,NW,19.6,24.2,N/A,,Clear,320,2012-02-11 16:15:00
10:35 AM,20.3,5.0,52,30.44,10.0,NW,18.4,24.2,N/A,,Clear,320,2012-02-11 16:35:00
10:55 AM,21.0,4.1,48,30.43,10.0,NW,19.6,26.5,N/A,,Clear,310,2012-02-11 16:55:00
11:15 AM,21.7,3.0,45,30.43,10.0,NW,18.4,24.2,N/A,,Clear,310,2012-02-11 17:15:00
11:35 AM,22.5,2.1,41,30.43,10.0,NW,20.7,25.3,N/A,,Clear,320,2012-02-11 17:35:00
12:15 PM,23.9,2.7,40,30.41,10.0,WNW,19.6,29.9,N/A,,Clear,300,2012-02-11 18:15:00
12:35 PM,24.4,4.3,42,30.41,10.0,WNW,23.0,28.8,N/A,,Clear,300,2012-02-11 18:35:00
12:55 PM,24.8,3.6,40,30.40,10.0,WNW,17.3,27.6,N/A,,Clear,290,2012-02-11 18:55:00
1:15 PM,25.5,3.6,39,30.39,10.0,NW,21.9,31.1,N/A,,Clear,310,2012-02-11 19:15:00
1:35 PM,26.2,1.9,35,30.39,10.0,NW,24.2,32.2,N/A,,Clear,310,2012-02-11 19:35:00
1:55 PM,26.6,3.9,38,30.39,10.0,WNW,20.7,27.6,N/A,,Clear,290,2012-02-11 19:55:00
2:15 PM,27.0,3.9,37,30.39,10.0,WNW,19.6,27.6,N/A,,Clear,300,2012-02-11 20:15:00
2:35 PM,27.3,3.0,35,30.38,10.0,NW,25.3,33.4,N/A,,Clear,310,2012-02-11 20:35:00
2:55 PM,27.5,2.7,35,30.39,10.0,WNW,23.0,33.4,N/A,,Clear,300,2012-02-11 20:55:00
3:15 PM,27.3,1.8,33,30.39,10.0,WNW,25.3,32.2,N/A,,Clear,300,2012-02-11 21:15:00
3:35 PM,27.1,1.8,34,30.39,10.0,WNW,24.2,33.4,N/A,,Clear,300,2012-02-11 21:35:00
3:55 PM,26.8,1.6,34,30.39,10.0,NW,25.3,33.4,N/A,,Clear,310,2012-02-11 21:55:00
4:15 PM,26.6,1.9,35,30.39,10.0,WNW,25.3,33.4,N/A,,Clear,300,2012-02-11 22:15:00
4:35 PM,26.4,2.3,36,30.39,10.0,WNW,24.2,32.2,N/A,,Clear,300,2012-02-11 22:35:00
4:55 PM,25.7,2.8,38,30.39,10.0,WNW,21.9,31.1,N/A,,Clear,300,2012-02-11 22:55:00
5:15 PM,25.2,3.0,39,30.39,10.0,WNW,21.9,31.1,N/A,,Clear,300,2012-02-11 23:15:00
5:35 PM,24.6,3.6,40,30.40,10.0,WNW,18.4,23.0,N/A,,Clear,300,2012-02-11 23:35:00
5:55 PM,24.3,3.9,42,30.40,10.0,WNW,17.3,25.3,N/A,,Clear,300,2012-02-11 23:55:00
6:15 PM,23.9,4.5,43,30.41,10.0,WNW,18.4,-,N/A,,Clear,300,2012-02-12 00:15:00
6:35 PM,23.5,4.3,44,30.41,10.0,WNW,18.4,-,N/A,,Clear,300,2012-02-12 00:35:00
6:55 PM,23.0,5.4,47,30.41,10.0,WNW,15.0,21.9,N/A,,Clear,300,2012-02-12 00:55:00
7:15 PM,23.0,4.8,46,30.41,10.0,WNW,18.4,-,N/A,,Clear,300,2012-02-12 01:15:00
7:35 PM,22.8,5.2,47,30.41,10.0,WNW,17.3,-,N/A,,Clear,300,2012-02-12 01:35:00
7:55 PM,22.3,5.9,50,30.41,10.0,WNW,16.1,21.9,N/A,,Clear,300,2012-02-12 01:55:00
8:15 PM,22.1,5.7,49,30.41,10.0,WNW,12.7,18.4,N/A,,Clear,290,2012-02-12 02:15:00
8:35 PM,21.7,6.1,51,30.41,10.0,WNW,12.7,-,N/A,,Clear,290,2012-02-12 02:35:00
8:55 PM,21.7,6.4,52,30.41,10.0,WNW,11.5,18.4,N/A,,Clear,290,2012-02-12 02:55:00
9:15 PM,21.6,6.3,52,30.41,10.0,WNW,10.4,-,N/A,,Clear,290,2012-02-12 03:15:00
9:35 PM,21.6,6.8,53,30.41,10.0,WNW,11.5,-,N/A,,Clear,290,2012-02-12 03:35:00
9:55 PM,21.6,7.0,54,30.41,10.0,WNW,12.7,18.4,N/A,,Clear,290,2012-02-12 03:55:00
10:15 PM,21.6,6.8,53,30.41,10.0,WNW,13.8,-,N/A,,Clear,300,2012-02-12 04:15:00
10:35 PM,21.4,6.3,52,30.41,10.0,WNW,15.0,21.9,N/A,,Clear,300,2012-02-12 04:35:00
10:55 PM,21.0,5.7,52,30.40,10.0,WNW,12.7,-,N/A,,Clear,300,2012-02-12 04:55:00
11:15 PM,20.3,5.7,53,30.41,10.0,WNW,11.5,17.3,N/A,,Clear,290,2012-02-12 05:15:00
11:35 PM,20.3,5.9,54,30.40,10.0,WNW,11.5,16.1,N/A,,Clear,290,2012-02-12 05:35:00
11:55 PM,20.3,5.5,53,30.41,10.0,WNW,11.5,-,N/A,,Clear,290,2012-02-12 05:55:00